Wind_Speed
26 26 27 28 28 29 31 31 31 33 34 35 35 34 36 37 37 38 39 39 40 40 40 40 38 36 36 35 35 36 35 35 34 33 33 33 33 33 33 32 32 33 33
25 25 27 28 28 28 29 29 29 30 33 35 36 35 34 36 37 38 38 39 40 41 40 40 39 38 36 35 36 36 36 36 36 35 34 34 34 35 34 34 34 35 35
24 25 26 27 27 27 27 28 28 29 31 33 34 34 35 35 36 36 37 38 39 40 41 41 39 38 37 37 37 37 37 38 38 37 36 36 36 36 37 37 37 37 37
22 23 24 25 26 27 28 28 27 27 29 30 31 32 32 33 35 36 37 37 38 38 40 40 40 39 38 39 39 39 39 39 40 40 39 39 39 38 39 39 39 39 40
21 22 23 24 25 26 26 27 27 27 28 29 30 30 30 31 33 34 36 36 37 38 40 40 40 40 40 39 39 39 39 40 41 41 41 41 41 41 41 41 42 42 42
21 21 22 23 25 26 26 26 26 26 27 27 28 29 30 30 31 32 34 35 35 36 37 39 40 40 40 40 39 39 40 41 43 44 44 44 43 43 43 43 43 43 44
22 21 22 23 24 25 25 25 26 27 27 27 28 29 30 30 32 33 34 35 36 36 37 38 39 40 40 40 40 41 41 42 43 44 46 47 47 46 45 45 45 45 45
22 22 22 23 24 26 27 27 27 27 28 28 29 30 30 31 31 32 32 34 35 36 37 37 38 39 40 40 41 42 41 42 44 45 46 48 49 48 48 47 46 47 47
22 23 23 23 24 25 27 27 27 27 28 29 30 30 31 32 32 32 32 33 35 36 37 37 39 40 41 42 42 42 43 44 44 45 45 46 47 47 48 48 48 48 48
23 23 24 24 25 26 27 28 29 28 29 29 29 30 31 33 33 34 34 34 35 36 37 38 39 40 40 41 41 42 44 43 44 45 45 47 48 48 48 49 49 49 49
23 24 25 25 26 26 27 29 30 30 30 29 29 30 31 32 33 34 35 36 36 37 38 39 40 40 41 41 42 42 42 44 45 46 46 47 47 49 49 50 50 50 50
24 24 25 26 27 28 28 28 30 30 31 31 32 31 31 31 32 33 34 34 36 37 39 39 39 40 42 43 44 44 44 45 46 47 47 47 48 49 50 50 50 51 51
25 25 26 27 27 28 29 29 30 30 31 32 33 33 33 34 34 35 35 36 37 37 38 39 40 41 42 44 45 45 46 46 46 46 47 48 49 49 50 50 51 52 53
25 25 26 27 27 28 29 30 30 31 31 32 33 34 35 36 37 37 38 39 39 39 39 40 41 42 43 44 44 45 47 47 46 46 47 48 49 49 51 52 53 53 54
25 26 26 27 28 28 29 29 29 30 31 32 33 34 35 36 37 38 39 40 41 42 42 43 43 44 44 45 45 46 47 47 47 47 48 48 49 50 51 52 53 54 54
26 26 26 26 27 27 28 29 29 30 31 32 33 35 36 38 39 40 41 41 42 43 43 44 44 45 45 46 45 46 47 47 47 47 48 49 49 50 51 52 53 53 53
26 26 26 26 26 27 28 29 30 31 31 32 33 34 35 37 39 40 41 42 42 43 43 43 44 44 45 45 46 46 47 46 46 47 48 49 49 50 51 52 52 52 53
28 28 27 27 27 28 28 29 30 31 32 33 34 35 36 36 38 39 40 40 41 42 42 42 43 44 44 44 45 46 46 46 47 48 49 49 49 50 51 51 51 52 52
30 29 29 29 29 29 29 30 30 30 31 33 34 35 36 37 38 39 40 40 41 41 42 42 43 44 44 45 46 47 47 48 48 48 49 49 50 50 50 51 51 52 52
31 31 31 31 31 32 32 32 32 33 33 34 35 35 36 37 38 39 39 40 40 41 42 43 43 44 44 45 46 47 48 48 48 48 49 49 50 50 51 51 52 52 52
33 33 33 33 33 34 34 34 34 35 35 36 36 37 38 38 39 39 40 41 41 42 42 43 44 44 45 46 46 47 48 49 49 49 49 49 49 50 51 52 52 52 52
35 35 35 36 36 36 36 36 36 37 38 38 39 39 40 40 40 41 41 41 42 42 43 43 43 44 45 45 46 47 47 48 48 48 48 48 49 49 50 51 52 52 53
37 37 37 38 38 38 37 38 38 39 40 40 40 40 41 41 41 42 42 43 43 43 43 43 44 44 45 45 46 47 47 48 47 47 47 48 48 49 50 50 51 52 53
38 39 38 38 39 39 39 39 40 40 41 41 41 41 42 42 42 43 43 43 43 43 43 43 43 44 45 45 46 47 47 47 48 48 48 48 48 49 50 50 50 51 53
39 39 39 39 39 40 41 41 41 41 41 42 42 42 42 42 43 42 42 43 43 43 44 44 44 45 45 46 46 47 47 48 49 49 49 48 48 48 49 50 51 51 52
39 40 40 40 40 41 41 41 42 42 42 42 42 42 42 42 42 42 42 43 43 44 45 45 45 45 46 46 47 47 47 48 49 49 48 48 49 49 49 50 50 51 51
Wind_Direction
258 255 253 253 253 249 248 245 243 244 244 246 247 247 245 243 243 245 246 245 244 245 246 249 249 248 250 251 251 252 253 255 258 262 263 265 267 270 271 273 275 277 278
261 257 254 253 254 253 249 246 245 246 245 246 246 247 247 246 245 246 248 247 246 247 248 250 251 250 251 252 251 253 254 256 259 262 264 265 267 269 271 273 275 276 277
266 261 257 254 253 252 248 249 250 248 245 245 246 247 247 248 248 248 249 249 248 248 248 250 252 253 252 252 253 254 254 255 259 261 263 266 268 269 271 273 275 276 277
268 262 259 255 252 252 250 250 252 250 248 247 248 248 248 249 249 249 249 249 249 249 250 252 253 252 252 254 255 255 255 257 259 261 263 267 269 271 272 273 274 276 277
269 264 259 256 254 255 255 253 253 253 252 250 249 248 250 251 249 249 249 249 250 251 252 253 254 255 256 257 258 257 256 258 260 262 264 267 270 271 272 274 274 275 277
269 265 260 255 254 255 258 258 256 256 254 252 249 248 250 252 252 251 251 250 251 253 254 254 255 257 258 258 260 260 260 261 261 262 264 267 269 271 273 273 275 275 277
269 267 262 256 254 255 257 259 257 257 256 254 253 251 250 252 253 253 252 252 252 253 254 255 256 257 259 260 261 262 262 263 264 264 266 267 269 270 272 274 275 276 277
270 269 266 262 258 257 258 259 259 258 257 257 256 254 253 253 255 256 257 254 254 254 255 256 256 258 259 259 261 263 263 264 266 267 268 269 268 269 272 274 275 275 276
271 269 270 267 263 260 260 261 261 261 260 260 259 257 255 255 257 258 259 258 257 256 257 258 259 260 260 262 262 261 262 264 267 268 269 270 270 271 273 274 275 275 275
273 269 269 269 267 265 263 263 261 261 260 261 261 260 259 259 258 260 261 261 261 261 260 260 262 261 262 264 264 263 264 266 268 269 270 271 271 272 272 274 275 275 276
273 271 269 270 270 268 265 263 262 262 260 260 262 263 262 260 260 261 262 263 263 264 264 263 263 264 264 264 266 267 268 269 269 269 270 271 272 272 272 274 275 276 277
273 271 270 270 270 269 267 265 263 264 263 263 263 265 265 263 263 263 264 265 266 267 267 265 265 265 267 268 268 268 269 270 271 271 271 272 274 274 274 275 276 277 278
277 274 271 270 270 269 267 266 265 267 267 267 266 266 265 263 263 265 266 266 267 268 268 268 269 269 269 270 270 270 271 272 273 273 273 274 275 276 275 276 277 278 279
278 276 274 272 272 271 268 267 267 267 267 266 265 265 264 264 264 266 267 267 268 269 270 271 271 270 270 270 271 272 272 273 274 275 275 276 276 276 276 277 278 279 279
278 276 275 275 274 272 271 271 270 269 269 268 267 267 266 266 267 268 268 268 269 270 270 271 271 271 270 270 271 272 273 273 274 275 275 276 276 276 277 278 279 279 280
277 276 276 276 276 275 274 273 272 272 271 271 269 269 268 267 269 270 270 270 270 270 270 270 270 270 270 271 272 272 272 273 274 275 275 276 276 277 278 279 280 281 282
278 277 276 275 275 276 277 276 274 273 273 273 272 272 271 270 271 272 272 272 272 271 272 271 271 271 271 271 272 273 273 274 274 275 276 277 278 279 280 281 282 282 283
277 277 276 275 276 277 277 277 276 274 274 274 274 273 274 274 273 274 274 274 274 274 274 273 273 273 272 273 273 274 275 276 276 276 277 278 279 280 281 281 282 282 283
277 277 276 276 276 277 278 277 276 275 275 275 275 275 275 275 275 275 275 275 275 276 275 275 274 273 273 274 274 274 275 276 277 278 278 279 280 281 281 281 282 283 284
277 276 276 276 276 277 277 277 277 277 278 277 277 276 276 276 276 276 275 275 275 276 276 276 275 275 275 275 275 275 276 277 278 279 279 280 281 281 282 282 283 284 285
277 276 276 277 277 278 279 278 277 277 278 278 277 277 277 277 277 277 277 276 277 277 277 277 276 277 277 276 277 277 278 278 279 279 280 281 281 282 283 283 284 285 285
277 276 276 276 277 278 278 278 278 279 279 279 277 277 277 277 278 278 277 277 277 277 277 277 277 277 278 278 278 278 279 279 280 281 281 282 283 283 284 284 285 286 286
278 277 277 276 276 277 278 278 279 279 279 279 278 278 278 278 278 278 278 277 277 277 277 276 277 277 277 278 279 279 280 280 281 282 282 283 283 284 285 286 287 287 288
279 279 278 277 277 277 278 279 279 279 279 279 279 278 279 279 278 278 279 278 277 277 277 277 277 277 277 278 279 279 279 280 281 282 282 283 284 285 286 287 287 288 288
280 279 278 278 278 279 279 279 280 281 280 280 279 280 279 279 279 279 279 279 278 277 278 279 278 278 278 278 279 279 280 280 281 282 283 284 285 285 286 287 288 288 288
280 280 279 279 279 280 280 281 281 281 281 281 281 281 280 280 280 280 280 280 280 279 279 280 280 279 279 280 280 279 280 281 282 283 284 285 285 286 286 287 287 288 288
Height
5711 5712 5713 5714 5715 5717 5719 5720 5723 5725 5728 5730 5733 5735 5737 5740 5743 5746 5749 5752 5755 5758 5762 5765 5768 5771 5773 5775 5777 5779 5781 5783 5785 5786 5787 5788 5789 5789 5790 5790 5790 5789 5789
5704 5705 5706 5708 5709 5710 5712 5714 5716 5718 5720 5723 5725 5727 5730 5732 5735 5738 5741 5744 5747 5750 5754 5757 5760 5762 5765 5767 5769 5771 5773 5775 5777 5778 5779 5780 5781 5781 5781 5781 5781 5781 5781
5698 5699 5700 5702 5703 5705 5706 5708 5710 5711 5714 5716 5718 5721 5723 5725 5728 5731 5733 5736 5739 5742 5746 5749 5752 5754 5757 5759 5761 5762 5765 5767 5768 5770 5771 5772 5772 5773 5773 5773 5773 5772 5772
5693 5694 5694 5696 5698 5699 5700 5702 5703 5705 5706 5708 5711 5714 5716 5718 5721 5723 5726 5728 5731 5734 5737 5740 5743 5746 5748 5750 5752 5754 5756 5758 5759 5761 5762 5763 5764 5764 5765 5764 5764 5763 5763
5688 5689 5690 5691 5692 5694 5695 5696 5698 5699 5700 5702 5704 5707 5709 5711 5713 5716 5718 5721 5724 5726 5729 5732 5735 5737 5739 5741 5743 5745 5747 5748 5750 5751 5752 5753 5754 5754 5755 5755 5755 5754 5753
5683 5684 5684 5685 5687 5688 5690 5691 5692 5693 5694 5696 5698 5700 5702 5704 5706 5708 5711 5713 5715 5718 5721 5723 5726 5728 5730 5732 5734 5736 5737 5739 5740 5741 5742 5743 5743 5743 5744 5744 5744 5743 5743
5678 5679 5679 5680 5681 5682 5684 5685 5686 5688 5688 5690 5692 5693 5695 5697 5699 5701 5703 5705 5707 5710 5712 5714 5717 5719 5721 5723 5725 5726 5727 5728 5730 5730 5731 5732 5732 5732 5732 5732 5732 5732 5731
5674 5674 5674 5675 5676 5677 5678 5679 5680 5682 5683 5684 5685 5686 5688 5690 5692 5694 5696 5697 5699 5701 5704 5706 5708 5710 5712 5713 5715 5716 5717 5718 5719 5719 5720 5720 5721 5721 5721 5721 5721 5720 5720
5669 5669 5669 5669 5670 5671 5672 5673 5674 5675 5676 5678 5679 5680 5681 5683 5685 5686 5688 5690 5692 5693 5695 5697 5699 5700 5702 5704 5705 5706 5706 5707 5707 5708 5709 5709 5709 5709 5708 5708 5708 5708 5708
5663 5663 5663 5664 5664 5665 5666 5667 5668 5669 5670 5671 5672 5673 5675 5676 5677 5679 5680 5682 5683 5685 5686 5688 5689 5691 5692 5693 5694 5695 5695 5696 5696 5696 5697 5697 5697 5697 5696 5696 5696 5695 5695
5658 5658 5658 5658 5659 5659 5660 5661 5661 5662 5663 5664 5665 5666 5667 5668 5670 5671 5672 5673 5675 5676 5677 5678 5680 5681 5682 5683 5683 5684 5684 5685 5685 5685 5685 5685 5685 5684 5684 5683 5683 5682 5681
5652 5652 5652 5652 5653 5653 5653 5654 5654 5655 5656 5657 5658 5659 5660 5661 5662 5663 5664 5665 5666 5667 5668 5669 5670 5671 5671 5672 5672 5672 5673 5673 5673 5673 5673 5672 5672 5672 5671 5670 5669 5669 5668
5646 5646 5646 5645 5645 5646 5646 5647 5647 5648 5649 5650 5651 5651 5652 5653 5653 5654 5655 5656 5657 5657 5658 5658 5659 5659 5660 5660 5660 5660 5661 5661 5661 5660 5660 5659 5659 5659 5658 5657 5656 5655 5653
5640 5639 5639 5638 5638 5638 5638 5639 5640 5640 5640 5641 5641 5642 5643 5644 5644 5645 5645 5646 5646 5647 5647 5647 5648 5648 5648 5648 5648 5648 5648 5649 5648 5648 5647 5646 5646 5645 5644 5642 5641 5640 5638
5634 5633 5632 5631 5631 5631 5631 5631 5631 5631 5631 5632 5632 5633 5633 5634 5634 5635 5635 5635 5635 5635 5636 5636 5636 5636 5636 5636 5636 5636 5636 5636 5635 5635 5634 5633 5632 5630 5629 5628 5627 5625 5623
5626 5626 5625 5624 5624 5623 5623 5623 5623 5623 5623 5623 5623 5623 5623 5624 5624 5624 5624 5624 5624 5624 5624 5624 5624 5624 5623 5623 5623 5622 5623 5622 5622 5621 5620 5619 5618 5616 5615 5613 5612 5610 5608
5619 5618 5617 5617 5617 5616 5615 5615 5615 5614 5614 5614 5614 5614 5613 5613 5613 5613 5612 5612 5612 5612 5611 5611 5611 5611 5611 5610 5610 5609 5609 5609 5608 5607 5606 5605 5603 5602 5600 5599 5597 5595 5592
5611 5610 5610 5609 5609 5608 5608 5607 5606 5606 5605 5605 5605 5604 5604 5603 5602 5602 5601 5601 5600 5600 5599 5599 5599 5598 5598 5597 5596 5596 5595 5595 5594 5593 5592 5590 5589 5587 5586 5584 5583 5580 5578
5602 5602 5601 5601 5601 5600 5599 5598 5598 5597 5596 5595 5595 5594 5593 5592 5592 5591 5590 5589 5589 5588 5587 5587 5586 5586 5585 5583 5583 5582 5581 5581 5580 5579 5577 5576 5575 5573 5571 5570 5568 5566 5563
5594 5593 5592 5592 5591 5591 5590 5589 5588 5587 5586 5585 5584 5583 5582 5581 5580 5579 5578 5577 5577 5576 5575 5574 5573 5572 5571 5570 5569 5568 5567 5567 5566 5565 5563 5562 5560 5558 5556 5554 5553 5551 5549
5585 5584 5583 5582 5582 5581 5580 5579 5578 5577 5576 5575 5574 5573 5571 5570 5569 5568 5567 5566 5565 5564 5562 5561 5560 5559 5558 5557 5556 5554 5553 5553 5552 5551 5550 5548 5546 5544 5542 5540 5538 5536 5533
5574 5574 5573 5572 5571 5570 5569 5568 5567 5566 5565 5564 5563 5561 5560 5559 5557 5556 5555 5554 5552 5552 5550 5549 5548 5546 5545 5543 5542 5541 5540 5539 5538 5537 5535 5534 5531 5529 5527 5525 5523 5520 5518
5564 5563 5562 5561 5560 5559 5558 5557 5556 5555 5553 5552 5551 5549 5548 5547 5545 5544 5543 5541 5540 5539 5537 5536 5535 5533 5532 5530 5529 5527 5526 5524 5524 5523 5521 5519 5517 5515 5513 5510 5507 5505 5502
5552 5551 5550 5550 5549 5548 5547 5545 5544 5542 5541 5539 5538 5537 5536 5535 5533 5532 5530 5529 5527 5526 5525 5523 5522 5520 5519 5517 5515 5514 5512 5511 5509 5508 5507 5505 5503 5500 5498 5495 5493 5489 5486
5541 5539 5538 5538 5537 5535 5534 5533 5531 5530 5528 5527 5526 5524 5523 5522 5520 5519 5517 5516 5514 5513 5512 5510 5508 5507 5506 5503 5501 5500 5499 5497 5495 5494 5493 5491 5488 5486 5484 5481 5478 5475 5471
5529 5528 5526 5525 5524 5523 5522 5520 5519 5517 5516 5515 5513 5512 5510 5509 5507 5506 5505 5502 5501 5499 5498 5496 5495 5493 5491 5490 5488 5486 5484 5482 5481 5479 5478 5476 5474 5471 5469 5466 5463 5460 5456